Starlink 30082

operational
NORAD ID: 57509 Int'l Des: 2023-113 Owner: SPXS Country: US Constellation: starlink
LEOCIRCULAR

About Starlink 30082

Description loading...

Live Position

Loading 3D Globe...

Upcoming Passes

Altitude History

Altitude vs Time

uPlot chart will show altitude changes over time

Two-Line Element Set

1 57509U 23113Q 25351.30500939 -.00000995 00000-0 -58568-4 0 9992
2 57509 43.0026 105.3158 0001376 271.2906 88.7778 15.02528439131267
Epoch: Dec 17, 2025 • Age: 33 hours

Current Status

Altitude 563.4 km
Velocity 7.58 km/s
Sub-Earth Point -20.75°S, 28.29°W
Launch Date Aug 7, 2023
Age 2.3 years
Type internet

Technical Details

Classification Payload
Mass 730.00 kg
Dry Mass 700.00 kg
Total Mass 730.00 kg
Length 0.30 m
Diameter 4.10 m
Span 29.00 m
Shape Box + pan
Manufacturer SPXS
Bus Type Starlink V2M
Phase Status In Orbit
Owner/State SPXS/US

Large Constellations

Loading constellations...